Weather History for PHHI - February, 2014

Change the Weather History Date:

Monday, February 24, 2014

  Actual Average Record
Temperature  
Mean Temperature 70 °F -  
Max Temperature 75 °F 74 °F 80 °F (2004)
Min Temperature 64 °F 61 °F 55 °F (2009)
Cooling Degree Days 4    
Growing Degree Days 20 (Base 50)    
Moisture  
Dew Point 61 °F    
Average Humidity 73    
Maximum Humidity 92    
Minimum Humidity 59    
Precipitation  
Precipitation 0.00 in - - ()
Sea Level Pressure  
Sea Level Pressure 29.97 in    
Wind  
Wind Speed 8 mph (NNW)    
Max Wind Speed 14 mph    
Max Gust Speed 21 mph    
Visibility 10 miles    
Events      
Averages and records for this station are not official NWS values.
T = Trace of Precipitation, MM = Missing Value Source: NWS Daily Summary

Daily Weather History Graph

Daily Weather History Graph

Search for Another Location

Airport or City:

Trip Planner

Search our weather history database for the weather conditions in past years. The results will help you decide how hot, cold, wet, or windy it might be!

Date:

Astronomy

Feb. 24, 2014 Rise Set
Actual Time 6:56 AM HST 6:34 PM HST
Civil Twilight 6:34 AM HST 6:56 PM HST
Nautical Twilight 6:08 AM HST 7:22 PM HST
Astronomical Twilight 5:42 AM HST 7:48 PM HST
Moon 2:44 AM HST (2/24) 2:08 PM HST (2/24)
Length of Visible Light 12h 22m
Length of Day
11h 37m
Waning Crescent, 26% of the Moon is Illuminated
Feb 24
Waning Crescent
Feb 28
New
Mar 8
First Quarter
Mar 16
Full
Mar 23
Last Quarter

Hourly Weather History & Observations

Time (HST) Temp. Dew Point Humidity Pressure Visibility Wind Dir Wind Speed Gust Speed Precip Events Conditions
12:58 AM 67.3 °F 64.9 °F 92% 29.98 in 10.0 mi NNW 6.9 mph - N/A   Clear
1:58 AM 66.9 °F 64.4 °F 92% 29.96 in 10.0 mi NNW 6.9 mph - N/A   Clear
2:58 AM 66.6 °F 63.5 °F 90% 29.95 in 10.0 mi NNW 5.8 mph - N/A   Clear
3:58 AM 65.5 °F 62.8 °F 91% 29.94 in 10.0 mi North 6.9 mph - N/A   Clear
4:58 AM 65.8 °F 63.1 °F 91% 29.94 in 10.0 mi North 5.8 mph - N/A   Clear
5:58 AM 65.5 °F 62.2 °F 89% 29.95 in 10.0 mi North 6.9 mph - N/A   Mostly Cloudy
6:58 AM 64.6 °F 61.3 °F 89% 29.97 in 10.0 mi NNW 5.8 mph - N/A   Clear
7:58 AM 66.7 °F 62.6 °F 86% 29.99 in 10.0 mi NNW 6.9 mph - N/A   Clear
8:58 AM 70.0 °F 61.9 °F 75% 30.00 in 10.0 mi NNW 8.1 mph - N/A   Scattered Clouds
9:48 AM 71.6 °F 60.8 °F 69% 30.03 in 10.0 mi NNW 9.2 mph - N/A   Mostly Cloudy
9:58 AM 70.7 °F 60.6 °F 70% 30.01 in 10.0 mi NNW 13.8 mph - N/A   Overcast
10:28 AM 71.6 °F 60.8 °F 69% 30.03 in 10.0 mi NNW 9.2 mph - N/A   Mostly Cloudy
10:33 AM 73.4 °F 60.8 °F 65% 30.03 in 10.0 mi NW 13.8 mph 17.3 mph N/A   Mostly Cloudy
10:58 AM 72.9 °F 60.4 °F 65% 30.00 in 10.0 mi North 10.4 mph - N/A   Mostly Cloudy
11:03 AM 73.4 °F 60.8 °F 65% 30.02 in 10.0 mi NW 12.7 mph - N/A   Mostly Cloudy
11:08 AM 73.4 °F 60.8 °F 65% 30.02 in 10.0 mi NNW 9.2 mph - N/A   Mostly Cloudy
11:18 AM 73.4 °F 59.0 °F 61% 30.02 in 10.0 mi North 9.2 mph - N/A   Scattered Clouds
11:58 AM 73.8 °F 60.4 °F 63% 29.98 in 10.0 mi NNW 11.5 mph 18.4 mph N/A   Scattered Clouds
12:23 PM 73.4 °F 60.8 °F 65% 29.99 in 10.0 mi NNW 10.4 mph 18.4 mph N/A   Mostly Cloudy
12:28 PM 73.4 °F 60.8 °F 65% 29.99 in 10.0 mi NNW 11.5 mph 20.7 mph N/A   Scattered Clouds
12:38 PM 73.4 °F 60.8 °F 65% 29.99 in 10.0 mi NNW 13.8 mph - N/A   Mostly Cloudy
12:43 PM 75.2 °F 60.8 °F 61% 29.99 in 10.0 mi NW 11.5 mph 17.3 mph N/A   Scattered Clouds
12:58 PM 74.7 °F 60.8 °F 62% 29.96 in 10.0 mi NW 12.7 mph - N/A   Partly Cloudy
1:57 PM 75.2 °F 60.8 °F 61% 29.95 in 10.0 mi North 12.7 mph 20.7 mph N/A   Clear
1:58 PM 74.5 °F 60.1 °F 61% 29.93 in 10.0 mi North 12.7 mph 20.7 mph N/A   Clear
2:58 PM 74.8 °F 59.5 °F 59% 29.91 in 10.0 mi NW 12.7 mph - N/A   Clear
3:46 PM 73.4 °F 59.0 °F 61% 29.92 in 10.0 mi North 11.5 mph - N/A   Clear
3:58 PM 74.1 °F 59.9 °F 61% 29.90 in 10.0 mi NNW 12.7 mph - N/A   Clear
4:58 PM 72.7 °F 59.0 °F 62% 29.91 in 10.0 mi NNW 12.7 mph - N/A   Clear
5:58 PM 70.5 °F 59.2 °F 67% 29.91 in 10.0 mi NNW 9.2 mph - N/A   Clear
6:58 PM 68.2 °F 59.4 °F 73% 29.93 in 10.0 mi NNW 5.8 mph - N/A   Clear
7:58 PM 65.7 °F 59.2 °F 80% 29.94 in 10.0 mi NNW 5.8 mph - N/A   Clear
8:58 PM 66.0 °F 59.4 °F 79% 29.94 in 10.0 mi NNW 6.9 mph - N/A   Clear
9:18 PM 66.2 °F 59.0 °F 78% 29.96 in 10.0 mi NNW 5.8 mph - N/A   Mostly Cloudy
9:58 PM 66.4 °F 59.7 °F 79% 29.94 in 10.0 mi NW 4.6 mph - N/A   Mostly Cloudy
10:18 PM 66.2 °F 59.0 °F 78% 29.96 in 10.0 mi NNW 2.3 mph - N/A   Scattered Clouds
10:58 PM 64.9 °F 59.7 °F 83% 29.94 in 10.0 mi NW 3.5 mph - N/A   Partly Cloudy
11:58 PM 64.2 °F 59.7 °F 85% 29.93 in 10.0 mi North 4.6 mph - N/A   Clear